This is the latest recevied weather packets stored in our database for station/object W0VI. If no packets are shown the sender has not sent any weather packets the latest 10 day(s).
| Time | Temp. | Humidity | Pressure | Rain* | Wind** | Luminosity | Snow |
|---|---|---|---|---|---|---|---|
| 1787745914 | 16.67° C | 93% | 1014.5 hPa | 0 mm | - | 25 W/m² | - |
| 1787745614 | 16.67° C | 93% | 1014.7 hPa | 0 mm | - | 20 W/m² | - |
| 1787745309 | 17.22° C | 93% | 1014.4 hPa | 0 mm | - | 16 W/m² | - |
| 1787745003 | 17.22° C | 93% | 1014.2 hPa | 0 mm | - | 12 W/m² | - |
| 1787744699 | 17.22° C | 93% | 1014.4 hPa | 0 mm | - | 10 W/m² | - |
| 1787744395 | 17.22° C | 93% | 1014.5 hPa | 0 mm | - | 6 W/m² | - |
| 1787744090 | 17.22° C | 92% | 1014.3 hPa | 0 mm | - | 3 W/m² | - |
| 1787743785 | 17.22° C | 92% | 1014.2 hPa | 0 mm | - | 2 W/m² | - |
| 1787743484 | 17.22° C | 92% | 1014.1 hPa | 0 mm | - | 0 W/m² | - |
| 1787743180 | 17.22° C | 93% | 1014.2 hPa | 0 mm | - | 0 W/m² | - |
| 1787742876 | 17.22° C | 93% | 1013.9 hPa | 0 mm | - | 0 W/m² | - |
| 1787742572 | 17.22° C | 93% | 1014.2 hPa | 0 mm | - | 0 W/m² | - |
| 1787742267 | 17.22° C | 93% | 1014.1 hPa | 0 mm | - | 0 W/m² | - |
| 1787741963 | 17.22° C | 93% | 1013.9 hPa | 0 mm | - | 0 W/m² | - |
| 1787741659 | 17.22° C | 93% | 1013.9 hPa | 0 mm | - | 0 W/m² | - |
| 1787741354 | 17.22° C | 93% | 1013.9 hPa | 0 mm | - | 0 W/m² | - |
| 1787741053 | 17.22° C | 93% | 1014 hPa | 0 mm | - | 0 W/m² | - |
| 1787740748 | 17.22° C | 93% | 1013.7 hPa | 0 mm | - | 0 W/m² | - |
| 1787740447 | 17.22° C | 93% | 1013.5 hPa | 0 mm | - | 0 W/m² | - |
| 1787740142 | 17.22° C | 92% | 1013.7 hPa | 0 mm | - | 0 W/m² | - |
| 1787739838 | 17.22° C | 92% | 1013.5 hPa | 0 mm | - | 0 W/m² | - |
| 1787739535 | 17.22° C | 92% | 1013.8 hPa | 0 mm | - | 0 W/m² | - |
| 1787739234 | 17.22° C | 92% | 1013.6 hPa | 0 mm | - | 0 W/m² | - |
| 1787738930 | 17.22° C | 92% | 1013.8 hPa | 0 mm | - | 0 W/m² | - |
| 1787738626 | 17.22° C | 92% | 1013.7 hPa | 0 mm | - | 0 W/m² | - |
* Rain latest hour (hover to see other rain measurements)
** Current wind speed in m/s (hover to see current wind gust speed)